sat.trackr.live / text

‹ back to catalog

RASSVET-3 6

NORAD 68365 · 2026-061F

PAYLOAD ACTIVE UNKNOWN

§ Identity

Operator
Country
CIS
Launch date
2026-03-23
Launch site
PLMSC
Launch vehicle
Mass (kg)
RCS (m²)

External: N2YO · Heavens-Above · Gunter

§ Orbital elements

Epoch: 2026-05-25T03:58:34.123008Z

Period
92.26 min
Inclination
82.2982°
Eccentricity
0.0012422
Mean motion
15.60761228 rev/d
Perigee alt
377.1 km
Apogee alt
393.9 km
Semi-major
6,763.6 km
B*
3.8938e-4
RAAN
38.7560°
Arg perigee
63.3748°
Mean anomaly
296.8779°
Rev number
987

§ Raw data

RASSVET-3 61 68365U 26061F   26145.16567272  .00032597  00000+0  38938-3 0  99962 68365  82.2982  38.7560 0012422  63.3748 296.8779 15.60761228  9872

JSON: /api/v1/satellites/68365 · /tle

For live sub-satellite position, see the globe view (requires WebGL).

§ Visibility from observer

Set your observer location to see the next 7 days of passes ≥ 10°. The values pass through the URL so the page stays shareable.

No JS? Fill the form by hand. The geolocation button needs JavaScript.